Regional Weather Roundup
Issued by NWS Northern Indiana

Home | Current Version | Previous Version | Graphics & Text | Print | Product List | Glossary On
Versions: 1 2 3 4 5 6 7 8 9 10 11 12 13 14 15 16 17 18 19 20 21 22 23 24 25 26 27 28 29 30 31 32 33 34 35 36 37 38 39 40 41 42 43 44 45 46 47 48 49 50
000
ASUS43 KIWX 221110
RWRIWX

KIWX WEATHER ROUNDUP
NATIONAL WEATHER SERVICE NORTHERN INDIANA
600 AM EST WED FEB 22 2017

NOTE: "FAIR" INDICATES FEW OR NO CLOUDS BELOW 12,000 FEET WITH NO
SIGNIFICANT WEATHER AND/OR OBSTRUCTIONS TO VISIBILITY.

* THESE STATIONS ARE NOT UNDER NWS QUALITY CONTROL. THEY ALSO MAY NOT
  REPORT WEATHER SUCH AS PRECIPITATION OR FOG.

INZ001>027-221200-
NORTHERN INDIANA

CITY           SKY/WX    TMP DP  RH WIND       PRES   REMARKS
GARY*          CLOUDY    55  52  88 S7        29.85S FOG
VALPARAISO     FOG       49  48  97 CALM      29.86S VSB 3/4
MICHIGAN CITY* CLOUDY    54  54 100 S8        29.85S
LAPORTE*       PTCLDY    48  48  97 S3        29.86F FOG
KNOX*          CLOUDY    50  37  62 S5        29.86F
SOUTH BEND     MOCLDY    50  48  93 SW8       29.86F FOG
GOSHEN         PTCLDY    52  48  86 S9        29.86F
MONTICELLO*    CLOUDY    52  50  93 S5        29.87F
LOGANSPORT*    CLOUDY    50  50 100 S3        29.90S FOG
ROCHESTER*     MOCLDY    55  54  94 S6        29.88F
WARSAW*        CLOUDY    52  50  93 CALM      29.88S
ANGOLA*        MOCLDY    52  52 100 S6        29.87S
FORT WAYNE     CLOUDY    51  49  92 S3        29.91R FOG
HUNTINGTON*    FOG       47  46  96 CALM      29.90R VSB 1/2
PERU/GRISSOM   FOG       46  46 100 CALM      29.88S VSB 1/2
MARION*        CLOUDY    51  51 100 SW3       29.91R FOG

$$
INZ028>050-221200-
CENTRAL INDIANA

CITY           SKY/WX    TMP DP  RH WIND       PRES   REMARKS
LAFAYETTE      CLOUDY    49  49 100 CALM      29.88S FOG
KOKOMO*        FOG       49  49 100 S6        29.90S VSB 1/4
MUNCIE*        CLOUDY    57  53  86 SW7       29.90R
INDIANAPOLIS   PTCLDY    54  52  93 S5        29.90R FOG

$$
MIZ043>046-050>051-056>058-064>065-071>073-077>080-221200-
SOUTHWEST LOWER MICHIGAN

CITY           SKY/WX    TMP DP  RH WIND       PRES   REMARKS
BATTLE CREEK   MOCLDY    47  47 100 S7        29.86R FOG
BENTON HARBOR  CLOUDY    52  49  89 S6        29.84S FOG
COLDWATER*     CLEAR     50  49  98 SW3       29.86S
HILLSDALE*     CLOUDY    50  48  93 S8        29.87S FOG
HOLLAND        CLOUDY    50  49  96 S5        29.83F FOG
GRAND RAPIDS   CLOUDY    50  48  93 S9        29.83S FOG
KALAMAZOO      CLOUDY    47  45  93 S3        29.86R FOG
STURGIS*       CLOUDY    48  47  97 S3        29.85F FOG
THREE RIVERS*  FAIR      47  47 100 CALM      29.86F FOG

$$
OHZ001>008-015>018-024>025-221200-
NORTHWEST OHIO

CITY           SKY/WX    TMP DP  RH WIND       PRES   REMARKS
WAUSEON*       CLOUDY    54  52  94 SW8       29.89S
DEFIANCE       CLOUDY    51  49  92 SW3       29.90R
FINDLAY        CLOUDY    54  50  86 SW8       29.89R FOG
TOLEDO EXPRESS CLOUDY    54  52  93 SW8       29.89R
TOLEDO METCALF CLOUDY    53  52  96 SW8       29.90R FOG
LIMA           PTCLDY    53  53 100 SW7       29.91R FOG

$$
AND FOR LAKE MICHIGAN COASTAL AND OPEN LAKE BUOY OBSERVATIONS

STATION/POSITION TEMP    WIND        PRES    VSBY  WAVE
                 AIR SEA DIR/SP/G                  HT/PER
                 (F)     (DEG/KT/KT) (MB)    (MI)  (FT/S)
CALUMET HARBOR    54     190/  6/  8 1009.9R
MICHIGAN CITY     53     160/  7/ 10   N/A
BURNS HARBOR      54     190/ 11/ 15 1011.2

$$
&&




USA.gov is the U.S. government's official web portal to all federal, state and local government web resources and services.